Clermont County, Batavia, OH

9:52 PM EST on December 13, 2019 (GMT -0500)
Clermont County, Batavia

Weather History for KI69 - September, 2019

Change the Weather History Date:

Friday, September 13, 2019

  Actual Average (KLUK) Record (KLUK)
Temperature  
Mean Temperature 81 °F -  
Max Temperature 93 °F 82 °F 95 °F (1991)
Min Temperature 69 °F 59 °F 43 °F (1958)
Cooling Degree Days 16    
Growing Degree Days 31 (Base 50)    
Moisture  
Dew Point 70 °F    
Average Humidity 73    
Maximum Humidity 99    
Minimum Humidity 46    
Precipitation  
Precipitation 0.00 in - - ()
Sea Level Pressure  
Sea Level Pressure 30.13 in    
Wind  
Wind Speed 3 mph (SW)    
Max Wind Speed 14 mph    
Max Gust Speed 20 mph    
Visibility 9 miles    
Events      
Averages and records for this station are not official NWS values.
T = Trace of Precipitation, MM = Missing Value Source: NWS Daily Summary

Daily Weather History Graph

Daily Weather History Graph

Search for Another Location

Airport or City:

Astronomy

Sep. 13, 2019 Rise Set
Actual Time 7:16 AM EDT 7:48 PM EDT
Civil Twilight 6:49 AM EDT 8:15 PM EDT
Nautical Twilight 6:17 AM EDT 8:47 PM EDT
Astronomical Twilight 5:45 AM EDT 9:19 PM EDT
Moon 8:01 PM EDT (9/13) 6:33 AM EDT (9/13)
Length of Visible Light 13h 26m
Length of Day
12h 32m
Full, 100% of the Moon is Illuminated
Sep 13
Full
Sep 14
Full
Sep 21
Last Quarter
Sep 28
New
Oct 5
First Quarter

Hourly Weather History & Observations

Time (EDT) Temp. Heat Index Dew Point Humidity Pressure Visibility Wind Dir Wind Speed Gust Speed Precip Events Conditions
12:19 AM 72.3 °F - 71.2 °F 96% 30.14 in 7.0 mi Calm Calm - N/A   Clear
12:37 AM 73.0 °F - 71.2 °F 94% 30.14 in 10.0 mi Calm Calm - N/A   Clear
12:55 AM 73.0 °F - 70.2 °F 91% 30.14 in 10.0 mi Calm Calm - N/A   Clear
1:16 AM 72.3 °F - 70.7 °F 95% 30.14 in 10.0 mi Calm Calm - N/A   Clear
1:35 AM 72.0 °F - 71.6 °F 99% 30.14 in 7.0 mi Calm Calm - N/A   Clear
1:59 AM 71.6 °F - 70.9 °F 98% 30.14 in 7.0 mi Calm Calm - N/A   Clear
2:17 AM 71.4 °F - 70.5 °F 97% 30.14 in 10.0 mi Calm Calm - N/A   Clear
2:35 AM 70.7 °F - 70.0 °F 98% 30.14 in 5.0 mi Calm Calm - N/A   Clear
2:55 AM 70.9 °F - 70.3 °F 98% 30.14 in 4.0 mi Calm Calm - N/A   Clear
3:15 AM 71.2 °F - 70.5 °F 98% 30.14 in 7.0 mi Calm Calm - N/A   Clear
3:39 AM 70.7 °F - 70.0 °F 98% 30.14 in 7.0 mi Calm Calm - N/A   Clear
3:57 AM 70.2 °F - 69.8 °F 99% 30.13 in 5.0 mi Calm Calm - N/A   Clear
4:15 AM 70.3 °F - 69.4 °F 97% 30.13 in 7.0 mi Calm Calm - N/A   Clear
4:35 AM 70.7 °F - 69.6 °F 96% 30.13 in 7.0 mi Calm Calm - N/A   Clear
4:56 AM 70.0 °F - 69.4 °F 98% 30.13 in 7.0 mi Calm Calm - N/A   Clear
5:19 AM 69.8 °F - 69.1 °F 98% 30.13 in 5.0 mi Calm Calm - N/A   Clear
5:37 AM 69.8 °F - 69.3 °F 98% 30.14 in 7.0 mi Calm Calm - N/A   Clear
5:55 AM 69.4 °F - 68.4 °F 96% 30.14 in 10.0 mi Calm Calm - N/A   Clear
6:15 AM 70.2 °F - 69.3 °F 97% 30.14 in 10.0 mi Calm Calm - N/A   Clear
6:35 AM 69.8 °F - 68.2 °F 95% 30.14 in 10.0 mi Calm Calm - N/A   Clear
6:59 AM 69.8 °F - 68.5 °F 96% 30.15 in 10.0 mi Calm Calm - N/A   Clear
7:17 AM 69.8 °F - 68.2 °F 95% 30.15 in 10.0 mi Calm Calm - N/A   Clear
7:35 AM 69.8 °F - 68.4 °F 95% 30.15 in 10.0 mi Calm Calm - N/A   Clear
7:55 AM 69.8 °F - 68.2 °F 95% 30.16 in 10.0 mi Calm Calm - N/A   Clear
8:15 AM 70.5 °F - 69.3 °F 96% 30.16 in 7.0 mi Calm Calm - N/A   Clear
8:38 AM 72.1 °F - 69.4 °F 91% 30.16 in 10.0 mi Calm Calm - N/A   Clear
8:57 AM 74.5 °F - 70.7 °F 88% 30.16 in 10.0 mi Calm Calm - N/A   Clear
9:15 AM 77.0 °F - 70.5 °F 80% 30.16 in 10.0 mi Calm Calm - N/A   Clear
9:35 AM 79.5 °F - 69.8 °F 72% 30.16 in 10.0 mi SSW 3.5 mph - N/A   Clear
9:55 AM 81.0 °F 84.2 °F 69.4 °F 68% 30.16 in 10.0 mi SSW 4.6 mph - N/A   Clear
10:18 AM 82.6 °F 86.1 °F 69.3 °F 64% 30.16 in 10.0 mi SW 5.8 mph - N/A   Clear
10:36 AM 83.7 °F 87.7 °F 70.0 °F 63% 30.17 in 10.0 mi South 4.6 mph - N/A   Clear
10:56 AM 84.9 °F 88.8 °F 69.3 °F 59% 30.17 in 10.0 mi SSW 3.5 mph - N/A   Clear
11:15 AM 85.3 °F 89.1 °F 69.1 °F 58% 30.17 in 10.0 mi SSW 8.1 mph - N/A   Clear
11:35 AM 86.9 °F 91.7 °F 70.2 °F 57% 30.17 in 10.0 mi SW 8.1 mph - N/A   Clear
11:58 AM 87.8 °F 93.0 °F 70.3 °F 56% 30.17 in 10.0 mi SW 8.1 mph - N/A   Clear
12:16 PM 89.2 °F 94.9 °F 70.7 °F 54% 30.17 in 10.0 mi WSW 8.1 mph - N/A   Clear
12:35 PM 88.9 °F 93.8 °F 70.0 °F 53% 30.16 in 10.0 mi SW 6.9 mph - N/A   Clear
12:55 PM 89.8 °F 96.0 °F 70.9 °F 54% 30.16 in 10.0 mi SW 6.9 mph 16.1 mph N/A   Clear
1:15 PM 89.6 °F 95.7 °F 70.7 °F 54% 30.16 in 10.0 mi West 9.2 mph - N/A   Scattered Clouds
1:38 PM 90.5 °F 96.0 °F 70.0 °F 51% 30.15 in 10.0 mi WSW 10.4 mph - N/A   Scattered Clouds
1:56 PM 88.9 °F 93.4 °F 69.3 °F 52% 30.14 in 10.0 mi WSW 9.2 mph 17.3 mph N/A   Scattered Clouds
2:15 PM 90.9 °F 96.7 °F 70.7 °F 51% 30.14 in 10.0 mi WSW 9.2 mph - N/A   Clear
2:55 PM 91.9 °F 96.9 °F 69.3 °F 47% 30.13 in 10.0 mi SW 10.4 mph 19.6 mph N/A   Scattered Clouds
3:18 PM 91.4 °F 96.8 °F 70.0 °F 49% 30.12 in 10.0 mi WSW 10.4 mph - N/A   Scattered Clouds
3:36 PM 92.1 °F 98.3 °F 70.7 °F 49% 30.11 in 10.0 mi SW 8.1 mph - N/A   Scattered Clouds
3:55 PM 92.7 °F 98.8 °F 70.5 °F 48% 30.11 in 10.0 mi SW 10.4 mph 16.1 mph N/A   Scattered Clouds
4:15 PM 93.0 °F 99.0 °F 69.8 °F 47% 30.10 in 10.0 mi SSW 9.2 mph - N/A   Scattered Clouds
4:39 PM 92.3 °F 97.0 °F 68.7 °F 46% 30.09 in 10.0 mi SW 13.8 mph 18.4 mph N/A   Scattered Clouds
4:58 PM 92.3 °F 97.0 °F 69.1 °F 46% 30.09 in 10.0 mi WSW 10.4 mph 18.4 mph N/A   Clear
5:16 PM 91.9 °F 97.4 °F 69.8 °F 48% 30.09 in 10.0 mi WSW 10.4 mph - N/A   Clear
5:35 PM 91.4 °F 96.3 °F 69.4 °F 48% 30.09 in 10.0 mi SW 5.8 mph 16.1 mph N/A   Clear
5:55 PM 90.9 °F 96.2 °F 69.8 °F 50% 30.08 in 10.0 mi WSW 10.4 mph - N/A   Clear
6:19 PM 90.3 °F 95.2 °F 69.6 °F 50% 30.08 in 10.0 mi WSW 11.5 mph 16.1 mph N/A   Scattered Clouds
6:37 PM 89.8 °F 95.1 °F 70.2 °F 52% 30.09 in 10.0 mi SW 6.9 mph - N/A   Scattered Clouds
6:56 PM 89.6 °F 94.7 °F 70.0 °F 52% 30.09 in 10.0 mi SW 5.8 mph - N/A   Clear
7:15 PM 88.7 °F 93.9 °F 70.0 °F 54% 30.08 in 10.0 mi SW 4.6 mph - N/A   Clear
7:35 PM 87.8 °F 92.6 °F 69.6 °F 55% 30.09 in 10.0 mi SW 3.5 mph - N/A   Clear
7:59 PM 85.5 °F 90.1 °F 70.3 °F 60% 30.09 in 10.0 mi SSW 3.5 mph - N/A   Clear
8:18 PM 84.6 °F 89.4 °F 70.7 °F 63% 30.09 in 10.0 mi SSW 4.6 mph - N/A   Clear
8:36 PM 83.5 °F 88.0 °F 70.5 °F 65% 30.09 in 10.0 mi SW 3.5 mph - N/A   Clear
9:15 PM 81.7 °F 85.6 °F 70.5 °F 69% 30.11 in 10.0 mi SW 3.5 mph - N/A   Clear
9:39 PM 80.8 °F 84.1 °F 69.8 °F 69% 30.12 in 10.0 mi SW 4.6 mph - N/A   Clear
9:57 PM 79.3 °F - 69.8 °F 72% 30.12 in 10.0 mi SW 5.8 mph - N/A   Clear
10:16 PM 79.2 °F - 69.4 °F 72% 30.13 in 10.0 mi WSW 5.8 mph - N/A   Clear
10:35 PM 78.8 °F - 69.8 °F 74% 30.14 in 10.0 mi WSW 5.8 mph - N/A   Clear
10:55 PM 79.3 °F - 68.9 °F 70% 30.14 in 10.0 mi West 3.5 mph - N/A   Clear
11:19 PM 79.7 °F - 69.1 °F 70% 30.14 in 10.0 mi WNW 4.6 mph - N/A   Clear
11:37 PM 79.7 °F - 69.4 °F 71% 30.14 in 10.0 mi WNW 3.5 mph - N/A   Clear
11:55 PM 79.0 °F - 69.8 °F 73% 30.15 in 10.0 mi Calm Calm - N/A   Clear